Language: 


Des rapports , des résumés tant et plus, au choix de chacun....


Données Historiques de Météogheer
Journalier Rapport pour Décembre 19, 2017 Unitée:  Métrique    Impériale   Les deux
Suivant Jour »
Journalier Hebdomadaire Mensuel Annuel Sur mesure
  Max: Min: Moyenne:
Température: 8.9 °C 1.0 °C 4 °C
Point de rosée: 9.0 °C 1.0 °C 4.1 °C
Humidité: 98% 95% 98%
Vent: 14.0km/h 0.0km/h 3km/h
Rafales: 15.8km/h - -
Vent- - WSW
Pression: 1035.1 hPa 1031.0 hPa -
Pluie: 0.0 mm    
Historical Graphs
 
 
Données tabulaires pour Décembre 19, 2017
Heure Température Point de rosée Pression Vent Vent Rafales Humidité Pluie Taux (Horaire) Conditions
00:01 2.6 °C 3.0 °C 1031.0 hPa Calm   3.2 km/h 97% 0.0 mm
00:02 2.4 °C 2.0 °C 1031.0 hPa Calm   3.2 km/h 97% 0.0 mm
00:07 2.3 °C 2.0 °C 1031.0 hPa Calm   4.3 km/h 97% 0.0 mm
00:10 2.1 °C 2.0 °C 1031.0 hPa Calm   4.3 km/h 98% 0.0 mm
00:16 1.9 °C 2.0 °C 1031.0 hPa Calm   4.3 km/h 98% 0.0 mm
00:19 1.8 °C 2.0 °C 1031.0 hPa Calm   4.3 km/h 98% 0.0 mm
00:24 1.8 °C 2.0 °C 1031.0 hPa NNW 2.6 km/h 5.5 km/h 98% 0.0 mm
00:29 1.8 °C 2.0 °C 1031.0 hPa Calm   5.0 km/h 98% 0.0 mm
00:35 1.9 °C 2.0 °C 1031.0 hPa Calm   4.7 km/h 98% 0.0 mm
00:38 1.9 °C 2.0 °C 1031.0 hPa West 5.5 km/h 7.2 km/h 98% 0.0 mm
00:43 1.9 °C 2.0 °C 1031.0 hPa Calm   7.2 km/h 98% 0.0 mm
00:46 1.9 °C 2.0 °C 1031.0 hPa Calm   7.2 km/h 98% 0.0 mm
00:51 2.1 °C 2.0 °C 1031.0 hPa Calm   5.8 km/h 98% 0.0 mm
00:57 2.1 °C 2.0 °C 1031.0 hPa WNW 2.6 km/h 5.8 km/h 98% 0.0 mm
00:58 2.1 °C 2.0 °C 1031.0 hPa Calm   4.0 km/h 98% 0.0 mm
01:03 1.9 °C 2.0 °C 1031.0 hPa Calm   3.2 km/h 98% 0.0 mm
01:08 1.7 °C 2.0 °C 1031.0 hPa Calm   3.5 km/h 98% 0.0 mm
01:09 1.7 °C 2.0 °C 1031.0 hPa Calm   3.5 km/h 98% 0.0 mm
01:14 1.7 °C 2.0 °C 1031.0 hPa WNW 1.4 km/h 3.2 km/h 98% 0.0 mm
01:15 1.7 °C 2.0 °C 1031.0 hPa Calm   3.5 km/h 98% 0.0 mm
01:20 1.9 °C 2.0 °C 1031.0 hPa Calm   3.5 km/h 98% 0.0 mm
01:22 2.0 °C 2.0 °C 1031.0 hPa Calm   3.5 km/h 98% 0.0 mm
01:26 2.0 °C 2.0 °C 1031.0 hPa Calm     98% 0.0 mm
01:27 2.1 °C 2.0 °C 1031.0 hPa Calm     98% 0.0 mm
01:32 2.1 °C 2.0 °C 1031.0 hPa Calm   1.4 km/h 98% 0.0 mm
01:35 2.1 °C 2.0 °C 1031.0 hPa Calm   5.5 km/h 98% 0.0 mm
01:40 2.0 °C 2.0 °C 1031.0 hPa Calm   5.5 km/h 98% 0.0 mm
01:44 1.9 °C 2.0 °C 1031.0 hPa Calm   3.5 km/h 98% 0.0 mm
01:49 1.7 °C 2.0 °C 1031.0 hPa WNW 2.6 km/h 2.6 km/h 98% 0.0 mm
01:54 1.7 °C 2.0 °C 1031.0 hPa Calm   4.7 km/h 98% 0.0 mm
01:55 1.7 °C 2.0 °C 1031.0 hPa Calm   4.7 km/h 98% 0.0 mm
02:00 1.7 °C 2.0 °C 1031.0 hPa Calm   4.7 km/h 98% 0.0 mm
02:05 1.9 °C 2.0 °C 1031.0 hPa Calm     98% 0.0 mm
02:06 1.9 °C 2.0 °C 1031.0 hPa Calm     98% 0.0 mm
02:11 2.1 °C 2.0 °C 1032.1 hPa Calm     98% 0.0 mm
02:12 2.2 °C 2.0 °C 1032.1 hPa Calm     98% 0.0 mm
02:16 2.3 °C 3.0 °C 1032.1 hPa Calm     98% 0.0 mm
02:18 2.3 °C 3.0 °C 1032.1 hPa Calm     98% 0.0 mm
02:22 2.4 °C 3.0 °C 1032.1 hPa Calm     98% 0.0 mm
02:23 2.4 °C 3.0 °C 1032.1 hPa Calm   4.0 km/h 98% 0.0 mm
02:28 2.4 °C 3.0 °C 1031.0 hPa Calm   4.0 km/h 98% 0.0 mm
02:29 2.4 °C 3.0 °C 1031.0 hPa Calm   4.0 km/h 98% 0.0 mm
02:34 2.5 °C 3.0 °C 1031.0 hPa Calm   7.6 km/h 98% 0.0 mm
02:36 2.5 °C 3.0 °C 1031.0 hPa Calm   7.6 km/h 98% 0.0 mm
02:38 2.6 °C 3.0 °C 1031.0 hPa Calm   7.6 km/h 98% 0.0 mm
02:43 2.7 °C 3.0 °C 1031.0 hPa Calm   1.8 km/h 98% 0.0 mm
02:44 2.7 °C 3.0 °C 1031.0 hPa Calm   1.8 km/h 98% 0.0 mm
02:49 2.6 °C 3.0 °C 1031.0 hPa Calm   3.5 km/h 98% 0.0 mm
02:54 2.5 °C 3.0 °C 1031.0 hPa Calm   3.5 km/h 98% 0.0 mm
02:57 2.4 °C 3.0 °C 1032.1 hPa Calm   3.5 km/h 98% 0.0 mm
03:02 2.3 °C 3.0 °C 1032.1 hPa West 2.1 km/h 4.0 km/h 98% 0.0 mm
03:03 2.2 °C 2.0 °C 1032.1 hPa Calm   4.0 km/h 98% 0.0 mm
03:08 2.0 °C 2.0 °C 1032.1 hPa Calm   4.0 km/h 98% 0.0 mm
03:10 1.9 °C 2.0 °C 1032.1 hPa Calm   4.0 km/h 98% 0.0 mm
03:15 1.7 °C 2.0 °C 1032.1 hPa Calm   1.4 km/h 98% 0.0 mm
03:18 1.7 °C 2.0 °C 1032.1 hPa Calm     98% 0.0 mm
03:23 1.7 °C 2.0 °C 1032.1 hPa Calm     98% 0.0 mm
03:25 1.6 °C 2.0 °C 1032.1 hPa Calm     98% 0.0 mm
03:30 1.6 °C 2.0 °C 1032.1 hPa Calm     98% 0.0 mm
03:35 1.4 °C 1.0 °C 1032.1 hPa Calm     98% 0.0 mm
03:36 1.3 °C 1.0 °C 1032.1 hPa Calm     98% 0.0 mm
03:37 1.3 °C 1.0 °C 1032.1 hPa Calm     98% 0.0 mm
03:42 1.4 °C 1.0 °C 1032.1 hPa Calm     98% 0.0 mm
03:43 1.4 °C 1.0 °C 1032.1 hPa Calm     98% 0.0 mm
03:46 1.4 °C 1.0 °C 1032.1 hPa Calm     98% 0.0 mm
03:50 1.2 °C 1.0 °C 1032.1 hPa Calm     98% 0.0 mm
03:55 1.1 °C 1.0 °C 1032.1 hPa Calm     98% 0.0 mm
03:58 1.1 °C 1.0 °C 1032.1 hPa Calm     98% 0.0 mm
04:01 1.0 °C 1.0 °C 1032.1 hPa Calm     98% 0.0 mm
04:06 1.0 °C 1.0 °C 1032.1 hPa Calm     98% 0.0 mm
04:09 1.0 °C 1.0 °C 1032.1 hPa Calm     98% 0.0 mm
04:15 1.0 °C 1.0 °C 1032.1 hPa Calm     98% 0.0 mm
04:17 1.1 °C 1.0 °C 1032.1 hPa Calm     98% 0.0 mm
04:19 1.1 °C 1.0 °C 1032.1 hPa Calm     98% 0.0 mm
04:24 1.2 °C 1.0 °C 1032.1 hPa Calm     98% 0.0 mm
04:30 1.2 °C 1.0 °C 1032.1 hPa Calm     98% 0.0 mm
04:36 1.3 °C 1.0 °C 1032.1 hPa Calm     98% 0.0 mm
04:42 1.3 °C 1.0 °C 1032.1 hPa Calm     98% 0.0 mm
04:43 1.3 °C 1.0 °C 1032.1 hPa Calm     98% 0.0 mm
04:45 1.3 °C 1.0 °C 1032.1 hPa Calm     98% 0.0 mm
04:50 1.3 °C 1.0 °C 1032.1 hPa Calm     98% 0.0 mm
04:52 1.3 °C 1.0 °C 1032.1 hPa Calm     98% 0.0 mm
04:57 1.4 °C 1.0 °C 1033.1 hPa Calm     98% 0.0 mm
05:02 1.5 °C 2.0 °C 1033.1 hPa Calm     98% 0.0 mm
05:05 1.5 °C 2.0 °C 1033.1 hPa Calm     98% 0.0 mm
05:07 1.5 °C 2.0 °C 1033.1 hPa Calm     98% 0.0 mm
05:11 1.5 °C 2.0 °C 1033.1 hPa Calm     98% 0.0 mm
05:12 1.6 °C 2.0 °C 1033.1 hPa Calm     98% 0.0 mm
05:17 1.6 °C 2.0 °C 1033.1 hPa Calm     98% 0.0 mm
05:20 1.6 °C 2.0 °C 1033.1 hPa Calm     98% 0.0 mm
05:21 1.6 °C 2.0 °C 1033.1 hPa Calm     98% 0.0 mm
05:26 1.6 °C 2.0 °C 1033.1 hPa Calm     98% 0.0 mm
05:31 1.6 °C 2.0 °C 1033.1 hPa Calm     98% 0.0 mm
05:32 1.6 °C 2.0 °C 1033.1 hPa Calm     98% 0.0 mm
05:37 1.6 °C 2.0 °C 1033.1 hPa Calm     98% 0.0 mm
05:41 1.6 °C 2.0 °C 1033.1 hPa Calm     98% 0.0 mm
05:46 1.6 °C 2.0 °C 1033.1 hPa Calm     98% 0.0 mm
05:47 1.6 °C 2.0 °C 1033.1 hPa Calm     98% 0.0 mm
05:52 1.5 °C 2.0 °C 1033.1 hPa Calm     98% 0.0 mm
05:53 1.5 °C 2.0 °C 1033.1 hPa Calm     98% 0.0 mm
05:58 1.4 °C 1.0 °C 1032.1 hPa Calm     98% 0.0 mm
06:01 1.4 °C 1.0 °C 1032.1 hPa Calm     98% 0.0 mm
06:06 1.3 °C 1.0 °C 1032.1 hPa Calm     98% 0.0 mm
06:10 1.3 °C 1.0 °C 1032.1 hPa Calm     98% 0.0 mm
06:12 1.3 °C 1.0 °C 1033.1 hPa Calm     98% 0.0 mm
06:17 1.3 °C 1.0 °C 1033.1 hPa Calm     98% 0.0 mm
06:19 1.3 °C 1.0 °C 1033.1 hPa Calm     98% 0.0 mm
06:24 1.3 °C 1.0 °C 1033.1 hPa Calm   1.8 km/h 98% 0.0 mm
06:28 1.3 °C 1.0 °C 1033.1 hPa Calm   5.0 km/h 98% 0.0 mm
06:32 1.4 °C 1.0 °C 1033.1 hPa West 5.8 km/h 5.8 km/h 98% 0.0 mm
06:37 1.6 °C 2.0 °C 1033.1 hPa Calm   5.8 km/h 98% 0.0 mm
06:42 1.7 °C 2.0 °C 1033.1 hPa Calm   7.6 km/h 98% 0.0 mm
06:43 1.7 °C 2.0 °C 1033.1 hPa West 4.3 km/h 7.6 km/h 98% 0.0 mm
06:48 1.9 °C 2.0 °C 1033.1 hPa WSW 7.6 km/h 7.6 km/h 98% 0.0 mm
06:53 2.1 °C 2.0 °C 1033.1 hPa Calm   7.6 km/h 98% 0.0 mm
06:54 2.1 °C 2.0 °C 1033.1 hPa WSW 5.8 km/h 7.6 km/h 98% 0.0 mm
06:59 2.2 °C 2.0 °C 1033.1 hPa WSW 6.4 km/h 9.0 km/h 98% 0.0 mm
07:00 2.3 °C 3.0 °C 1033.1 hPa West 5.5 km/h 9.0 km/h 98% 0.0 mm
07:05 2.4 °C 3.0 °C 1033.1 hPa WSW 7.9 km/h 9.0 km/h 98% 0.0 mm
07:06 2.4 °C 3.0 °C 1033.1 hPa WSW 10.1 km/h 10.1 km/h 98% 0.0 mm
07:11 2.6 °C 3.0 °C 1033.1 hPa WSW 6.1 km/h 10.1 km/h 98% 0.0 mm
07:15 2.6 °C 3.0 °C 1033.1 hPa WSW 10.1 km/h 10.1 km/h 98% 0.0 mm
07:20 2.7 °C 3.0 °C 1033.1 hPa West 5.5 km/h 10.1 km/h 98% 0.0 mm
07:23 2.7 °C 3.0 °C 1033.1 hPa West 7.9 km/h 10.1 km/h 98% 0.0 mm
07:24 2.8 °C 3.0 °C 1033.1 hPa West 4.3 km/h 10.1 km/h 98% 0.0 mm
07:29 2.8 °C 3.0 °C 1034.1 hPa West 6.9 km/h 9.7 km/h 98% 0.0 mm
07:34 2.8 °C 3.0 °C 1034.1 hPa SW 6.9 km/h 10.5 km/h 98% 0.0 mm
07:39 2.8 °C 3.0 °C 1034.1 hPa West 6.4 km/h 10.5 km/h 98% 0.0 mm
07:40 2.8 °C 3.0 °C 1033.1 hPa WSW 6.4 km/h 10.5 km/h 98% 0.0 mm
07:44 2.7 °C 3.0 °C 1033.1 hPa WSW 9.0 km/h 9.3 km/h 98% 0.0 mm
07:46 2.7 °C 3.0 °C 1033.1 hPa WSW 8.7 km/h 10.5 km/h 98% 0.0 mm
07:51 2.6 °C 3.0 °C 1033.1 hPa WSW 10.1 km/h 11.6 km/h 98% 0.0 mm
07:55 2.6 °C 3.0 °C 1033.1 hPa WSW 9.3 km/h 13.7 km/h 98% 0.0 mm
07:58 2.6 °C 3.0 °C 1033.1 hPa WSW 7.9 km/h 13.7 km/h 98% 0.0 mm
08:02 2.6 °C 3.0 °C 1033.1 hPa WSW 9.3 km/h 10.5 km/h 98% 0.0 mm
08:03 2.5 °C 3.0 °C 1033.1 hPa WSW 8.7 km/h 10.5 km/h 98% 0.0 mm
08:08 2.5 °C 3.0 °C 1033.1 hPa WSW 7.6 km/h 10.5 km/h 98% 0.0 mm
08:09 2.5 °C 3.0 °C 1033.1 hPa WSW 6.4 km/h 10.5 km/h 98% 0.0 mm
08:13 2.5 °C 3.0 °C 1034.1 hPa WSW 9.7 km/h 10.5 km/h 98% 0.0 mm
08:18 2.5 °C 3.0 °C 1034.1 hPa WSW 6.4 km/h 9.7 km/h 98% 0.0 mm
08:23 2.5 °C 3.0 °C 1034.1 hPa West 7.9 km/h 11.6 km/h 98% 0.0 mm
08:26 2.4 °C 3.0 °C 1034.1 hPa WSW 6.9 km/h 11.6 km/h 98% 0.0 mm
08:30 2.4 °C 3.0 °C 1034.1 hPa WSW 7.2 km/h 11.6 km/h 98% 0.0 mm
08:34 2.4 °C 3.0 °C 1034.1 hPa WSW 9.0 km/h 10.1 km/h 98% 0.0 mm
08:39 2.4 °C 3.0 °C 1034.1 hPa WSW 7.9 km/h 9.0 km/h 98% 0.0 mm
08:42 2.3 °C 3.0 °C 1034.1 hPa West 4.3 km/h 9.0 km/h 98% 0.0 mm
08:45 2.3 °C 3.0 °C 1034.1 hPa West 5.0 km/h 9.0 km/h 98% 0.0 mm
08:47 2.3 °C 3.0 °C 1034.1 hPa Calm   9.0 km/h 98% 0.0 mm
08:52 2.3 °C 3.0 °C 1034.1 hPa West 5.5 km/h 6.4 km/h 98% 0.0 mm
08:54 2.3 °C 3.0 °C 1034.1 hPa Calm   6.4 km/h 98% 0.0 mm
08:59 2.3 °C 3.0 °C 1034.1 hPa Calm   6.1 km/h 98% 0.0 mm
09:03 2.3 °C 3.0 °C 1034.1 hPa Calm   5.0 km/h 98% 0.0 mm
09:06 2.3 °C 3.0 °C 1034.1 hPa Calm     98% 0.0 mm
09:10 2.4 °C 3.0 °C 1034.1 hPa Calm     98% 0.0 mm
09:12 2.3 °C 3.0 °C 1035.1 hPa SSW 5.5 km/h 5.5 km/h 98% 0.0 mm
09:17 2.3 °C 3.0 °C 1035.1 hPa Calm   5.5 km/h 98% 0.0 mm
09:19 2.3 °C 3.0 °C 1035.1 hPa Calm   5.5 km/h 98% 0.0 mm
09:24 2.3 °C 3.0 °C 1035.1 hPa Calm     98% 0.0 mm
09:27 2.3 °C 3.0 °C 1034.1 hPa Calm     98% 0.0 mm
09:32 2.3 °C 3.0 °C 1034.1 hPa Calm     98% 0.0 mm
09:37 2.4 °C 3.0 °C 1034.1 hPa Calm     98% 0.0 mm
09:38 2.4 °C 3.0 °C 1034.1 hPa Calm     98% 0.0 mm
09:43 2.3 °C 3.0 °C 1035.1 hPa WSW 6.9 km/h 8.7 km/h 98% 0.0 mm
09:48 2.3 °C 3.0 °C 1035.1 hPa WSW 6.1 km/h 8.7 km/h 98% 0.0 mm
09:51 2.3 °C 3.0 °C 1035.1 hPa WSW 6.1 km/h 8.7 km/h 98% 0.0 mm
09:56 2.3 °C 3.0 °C 1035.1 hPa Calm   7.6 km/h 98% 0.0 mm
09:57 2.4 °C 3.0 °C 1035.1 hPa Calm   6.1 km/h 98% 0.0 mm
10:02 2.4 °C 3.0 °C 1035.1 hPa West 4.7 km/h 6.1 km/h 98% 0.0 mm
10:03 2.4 °C 3.0 °C 1035.1 hPa West 4.7 km/h 6.1 km/h 98% 0.0 mm
10:08 2.3 °C 3.0 °C 1035.1 hPa WSW 7.6 km/h 9.0 km/h 98% 0.0 mm
10:11 2.3 °C 3.0 °C 1035.1 hPa WSW 6.1 km/h 9.0 km/h 98% 0.0 mm
10:16 2.3 °C 3.0 °C 1035.1 hPa WSW 6.1 km/h 9.3 km/h 98% 0.0 mm
10:21 2.3 °C 3.0 °C 1035.1 hPa WSW 6.4 km/h 9.3 km/h 98% 0.0 mm
10:27 2.3 °C 3.0 °C 1035.1 hPa WSW 7.2 km/h 8.7 km/h 98% 0.0 mm
10:32 2.3 °C 3.0 °C 1035.1 hPa West 5.8 km/h 9.3 km/h 98% 0.0 mm
10:33 2.3 °C 3.0 °C 1035.1 hPa West 4.7 km/h 9.3 km/h 98% 0.0 mm
10:38 2.4 °C 3.0 °C 1035.1 hPa Calm   9.3 km/h 98% 0.0 mm
10:43 2.5 °C 3.0 °C 1034.1 hPa Calm   7.9 km/h 98% 0.0 mm
10:44 2.5 °C 3.0 °C 1034.1 hPa SW 5.0 km/h 5.8 km/h 98% 0.0 mm
10:45 2.5 °C 3.0 °C 1034.1 hPa Calm   5.8 km/h 98% 0.0 mm
10:50 2.6 °C 3.0 °C 1034.1 hPa Calm   5.5 km/h 98% 0.0 mm
10:51 2.6 °C 3.0 °C 1034.1 hPa WSW 6.4 km/h 7.6 km/h 98% 0.0 mm
10:58 2.7 °C 3.0 °C 1035.1 hPa SW 6.4 km/h 7.9 km/h 98% 0.0 mm
11:00 2.7 °C 3.0 °C 1035.1 hPa Calm   7.9 km/h 98% 0.0 mm
11:03 2.7 °C 3.0 °C 1035.1 hPa WSW 6.9 km/h 9.0 km/h 98% 0.0 mm
11:05 2.7 °C 3.0 °C 1035.1 hPa WSW 6.4 km/h 9.0 km/h 98% 0.0 mm
11:10 2.8 °C 3.0 °C 1035.1 hPa WSW 6.9 km/h 9.0 km/h 98% 0.0 mm
11:12 2.8 °C 3.0 °C 1035.1 hPa WSW 7.6 km/h 9.0 km/h 98% 0.0 mm
11:13 2.8 °C 3.0 °C 1035.1 hPa Calm   7.6 km/h 98% 0.0 mm
11:18 2.8 °C 3.0 °C 1035.1 hPa WSW 2.6 km/h 8.7 km/h 98% 0.0 mm
11:20 2.8 °C 3.0 °C 1035.1 hPa WSW 8.7 km/h 9.0 km/h 98% 0.0 mm
11:24 2.8 °C 3.0 °C 1035.1 hPa Calm   9.3 km/h 98% 0.0 mm
11:29 2.9 °C 3.0 °C 1034.1 hPa Calm   9.3 km/h 98% 0.0 mm
11:34 3.0 °C 3.0 °C 1034.1 hPa Calm   6.9 km/h 98% 0.0 mm
11:37 3.3 °C 3.0 °C 1034.1 hPa Calm     98% 0.0 mm
11:39 3.4 °C 3.0 °C 1034.1 hPa Calm     98% 0.0 mm
11:44 3.7 °C 4.0 °C 1035.1 hPa Calm     98% 0.0 mm
11:46 3.7 °C 4.0 °C 1035.1 hPa Calm     98% 0.0 mm
11:47 3.7 °C 4.0 °C 1035.1 hPa Calm     98% 0.0 mm
11:52 3.7 °C 4.0 °C 1035.1 hPa WSW 4.0 km/h 4.0 km/h 98% 0.0 mm
11:56 4.2 °C 4.0 °C 1035.1 hPa Calm   5.8 km/h 98% 0.0 mm
12:01 4.6 °C 5.0 °C 1035.1 hPa Calm   6.4 km/h 98% 0.0 mm
12:02 4.6 °C 5.0 °C 1035.1 hPa Calm   6.4 km/h 98% 0.0 mm
12:08 4.9 °C 5.0 °C 1035.1 hPa WSW 5.5 km/h 6.4 km/h 98% 0.0 mm
12:13 5.0 °C 5.0 °C 1035.1 hPa Calm   6.1 km/h 98% 0.0 mm
12:28 5.4 °C 6.0 °C 1035.1 hPa WSW 6.9 km/h 6.9 km/h 98% 0.0 mm
12:31 5.5 °C 6.0 °C 1035.1 hPa Calm   6.9 km/h 98% 0.0 mm
12:32 5.6 °C 6.0 °C 1035.1 hPa WSW 5.0 km/h 6.9 km/h 98% 0.0 mm
12:37 5.7 °C 6.0 °C 1035.1 hPa West 9.3 km/h 9.3 km/h 98% 0.0 mm
12:39 5.7 °C 6.0 °C 1035.1 hPa WSW 1.8 km/h 9.3 km/h 98% 0.0 mm
12:44 6.4 °C 6.0 °C 1035.1 hPa WSW 6.1 km/h 9.3 km/h 98% 0.0 mm
12:45 6.5 °C 7.0 °C 1035.1 hPa SW 6.1 km/h 9.3 km/h 98% 0.0 mm
12:50 6.7 °C 7.0 °C 1035.1 hPa Calm   9.0 km/h 98% 0.0 mm
12:51 6.7 °C 7.0 °C 1035.1 hPa Calm   9.0 km/h 98% 0.0 mm
12:55 6.7 °C 7.0 °C 1035.1 hPa WSW 6.1 km/h 9.0 km/h 98% 0.0 mm
12:57 6.8 °C 7.0 °C 1035.1 hPa WSW 9.3 km/h 9.7 km/h 98% 0.0 mm
13:01 6.7 °C 7.0 °C 1035.1 hPa Calm   9.7 km/h 98% 0.0 mm
13:06 6.6 °C 7.0 °C 1035.1 hPa WSW 8.7 km/h 9.7 km/h 98% 0.0 mm
13:07 6.6 °C 7.0 °C 1035.1 hPa WSW 8.7 km/h 9.7 km/h 98% 0.0 mm
13:12 6.8 °C 7.0 °C 1035.1 hPa WSW 6.1 km/h 9.3 km/h 98% 0.0 mm
13:13 6.8 °C 7.0 °C 1035.1 hPa WSW 6.9 km/h 9.3 km/h 98% 0.0 mm
13:18 7.1 °C 7.0 °C 1035.1 hPa West 6.1 km/h 9.3 km/h 98% 0.0 mm
13:23 7.5 °C 8.0 °C 1035.1 hPa WSW 9.3 km/h 9.3 km/h 98% 0.0 mm
13:25 7.7 °C 8.0 °C 1035.1 hPa SW 5.8 km/h 9.7 km/h 98% 0.0 mm
13:28 7.9 °C 8.0 °C 1034.1 hPa WSW 6.1 km/h 10.1 km/h 98% 0.0 mm
13:33 7.9 °C 8.0 °C 1034.1 hPa WSW 6.9 km/h 10.5 km/h 98% 0.0 mm
13:38 7.8 °C 8.0 °C 1034.1 hPa West 7.9 km/h 11.1 km/h 98% 0.0 mm
13:39 7.8 °C 8.0 °C 1034.1 hPa West 9.0 km/h 11.1 km/h 98% 0.0 mm
13:41 7.8 °C 8.0 °C 1034.1 hPa WSW 9.0 km/h 11.9 km/h 98% 0.0 mm
13:47 7.8 °C 8.0 °C 1034.1 hPa WSW 7.9 km/h 11.9 km/h 98% 0.0 mm
13:48 7.9 °C 8.0 °C 1034.1 hPa WSW 7.2 km/h 11.9 km/h 98% 0.0 mm
13:53 8.0 °C 8.0 °C 1034.1 hPa WSW 8.7 km/h 12.6 km/h 98% 0.0 mm
13:54 8.0 °C 8.0 °C 1034.1 hPa WSW 9.7 km/h 12.6 km/h 98% 0.0 mm
13:59 8.2 °C 8.0 °C 1034.1 hPa WSW 10.5 km/h 12.6 km/h 98% 0.0 mm
14:03 8.3 °C 9.0 °C 1034.1 hPa WSW 9.3 km/h 12.2 km/h 98% 0.0 mm
14:08 8.5 °C 9.0 °C 1034.1 hPa WSW 9.7 km/h 12.2 km/h 98% 0.0 mm
14:13 8.5 °C 9.0 °C 1034.1 hPa WSW 9.7 km/h 12.2 km/h 98% 0.0 mm
14:14 8.6 °C 9.0 °C 1034.1 hPa WSW 7.9 km/h 12.2 km/h 98% 0.0 mm
14:16 8.6 °C 9.0 °C 1034.1 hPa WSW 9.0 km/h 12.2 km/h 98% 0.0 mm
14:21 8.8 °C 9.0 °C 1034.1 hPa WSW 9.3 km/h 11.6 km/h 98% 0.0 mm
14:26 8.9 °C 9.0 °C 1034.1 hPa WSW 9.0 km/h 11.9 km/h 98% 0.0 mm
14:27 8.9 °C 9.0 °C 1034.1 hPa WSW 6.4 km/h 11.9 km/h 98% 0.0 mm
14:31 8.9 °C 9.0 °C 1034.1 hPa WSW 8.7 km/h 11.9 km/h 98% 0.0 mm
14:36 8.9 °C 9.0 °C 1034.1 hPa WSW 8.7 km/h 10.5 km/h 98% 0.0 mm
14:41 8.8 °C 9.0 °C 1034.1 hPa West 11.6 km/h 15.8 km/h 98% 0.0 mm
14:42 8.8 °C 9.0 °C 1034.1 hPa WSW 12.2 km/h 15.8 km/h 98% 0.0 mm
14:47 8.7 °C 9.0 °C 1034.1 hPa West 10.5 km/h 15.8 km/h 98% 0.0 mm
14:48 8.7 °C 9.0 °C 1034.1 hPa West 11.9 km/h 15.8 km/h 98% 0.0 mm
14:53 8.8 °C 9.0 °C 1034.1 hPa WSW 13.0 km/h 14.3 km/h 98% 0.0 mm
14:58 8.8 °C 9.0 °C 1033.1 hPa WSW 13.0 km/h 14.3 km/h 98% 0.0 mm
15:04 8.6 °C 9.0 °C 1033.1 hPa WSW 9.0 km/h 14.3 km/h 97% 0.0 mm
15:05 8.6 °C 9.0 °C 1033.1 hPa WSW 14.0 km/h 14.3 km/h 97% 0.0 mm
15:06 8.5 °C 9.0 °C 1033.1 hPa WSW 11.6 km/h 14.0 km/h 97% 0.0 mm
15:11 8.4 °C 8.0 °C 1033.1 hPa WSW 10.5 km/h 14.0 km/h 96% 0.0 mm
15:14 8.3 °C 8.0 °C 1033.1 hPa West 9.3 km/h 14.0 km/h 96% 0.0 mm
15:15 8.3 °C 8.0 °C 1033.1 hPa WSW 9.3 km/h 14.0 km/h 96% 0.0 mm
15:20 8.2 °C 8.0 °C 1033.1 hPa WSW 12.6 km/h 15.8 km/h 95% 0.0 mm
15:21 8.1 °C 8.0 °C 1033.1 hPa WSW 12.2 km/h 15.8 km/h 95% 0.0 mm
15:23 8.1 °C 8.0 °C 1033.1 hPa WSW 10.5 km/h 15.8 km/h 95% 0.0 mm
15:26 8.1 °C 8.0 °C 1033.1 hPa WSW 13.0 km/h 14.8 km/h 95% 0.0 mm
15:31 8.1 °C 8.0 °C 1033.1 hPa West 10.5 km/h 14.8 km/h 95% 0.0 mm
15:36 8.0 °C 8.0 °C 1033.1 hPa WSW 8.7 km/h 14.3 km/h 95% 0.0 mm
15:38 8.0 °C 8.0 °C 1033.1 hPa West 10.5 km/h 14.0 km/h 95% 0.0 mm
15:43 8.0 °C 8.0 °C 1033.1 hPa WSW 9.3 km/h 14.0 km/h 95% 0.0 mm
15:45 7.9 °C 8.0 °C 1033.1 hPa West 9.3 km/h 14.0 km/h 96% 0.0 mm
15:50 7.7 °C 7.0 °C 1033.1 hPa WSW 9.7 km/h 14.0 km/h 96% 0.0 mm
15:52 7.6 °C 7.0 °C 1033.1 hPa WSW 11.9 km/h 14.0 km/h 95% 0.0 mm
15:57 7.4 °C 7.0 °C 1033.1 hPa WSW 11.6 km/h 13.7 km/h 96% 0.0 mm
15:58 7.4 °C 7.0 °C 1033.1 hPa West 10.1 km/h 13.7 km/h 96% 0.0 mm
16:01 7.3 °C 7.0 °C 1033.1 hPa WSW 7.9 km/h 13.7 km/h 96% 0.0 mm
16:06 7.1 °C 7.0 °C 1033.1 hPa WSW 9.7 km/h 12.2 km/h 96% 0.0 mm
16:07 7.0 °C 7.0 °C 1033.1 hPa WSW 10.1 km/h 12.2 km/h 96% 0.0 mm
16:12 6.8 °C 6.0 °C 1033.1 hPa WSW 9.7 km/h 12.2 km/h 96% 0.0 mm
16:14 6.8 °C 6.0 °C 1033.1 hPa WSW 7.9 km/h 12.2 km/h 96% 0.0 mm
16:17 6.7 °C 6.0 °C 1033.1 hPa WSW 6.1 km/h 11.9 km/h 97% 0.0 mm
16:21 6.6 °C 6.0 °C 1033.1 hPa WSW 6.4 km/h 10.5 km/h 97% 0.0 mm
16:24 6.4 °C 6.0 °C 1033.1 hPa Calm   10.5 km/h 97% 0.0 mm
16:29 6.3 °C 6.0 °C 1034.1 hPa West 7.9 km/h 10.5 km/h 97% 0.0 mm
16:30 6.2 °C 6.0 °C 1034.1 hPa West 7.2 km/h 10.1 km/h 97% 0.0 mm
16:34 6.1 °C 6.0 °C 1034.1 hPa WSW 9.0 km/h 10.5 km/h 97% 0.0 mm
16:39 5.9 °C 6.0 °C 1034.1 hPa WSW 7.9 km/h 10.5 km/h 97% 0.0 mm
16:40 5.9 °C 6.0 °C 1034.1 hPa West 9.7 km/h 10.5 km/h 98% 0.0 mm
16:44 5.8 °C 6.0 °C 1034.1 hPa WSW 9.0 km/h 10.5 km/h 98% 0.0 mm
16:47 5.6 °C 6.0 °C 1034.1 hPa WSW 6.9 km/h 10.5 km/h 98% 0.0 mm
16:49 5.5 °C 6.0 °C 1034.1 hPa WSW 8.7 km/h 10.1 km/h 98% 0.0 mm
16:53 5.3 °C 6.0 °C 1034.1 hPa WSW 7.9 km/h 9.0 km/h 98% 0.0 mm
16:58 5.1 °C 5.0 °C 1034.1 hPa WSW 6.9 km/h 9.0 km/h 98% 0.0 mm
17:01 5.1 °C 5.0 °C 1034.1 hPa WSW 9.3 km/h 9.3 km/h 98% 0.0 mm
17:06 5.0 °C 5.0 °C 1034.1 hPa WSW 8.7 km/h 9.3 km/h 98% 0.0 mm
17:11 4.9 °C 5.0 °C 1034.1 hPa WSW 7.9 km/h 9.3 km/h 98% 0.0 mm
17:16 4.8 °C 5.0 °C 1034.1 hPa WSW 5.8 km/h 9.0 km/h 98% 0.0 mm
17:21 4.7 °C 5.0 °C 1034.1 hPa Calm   9.0 km/h 98% 0.0 mm
17:22 4.7 °C 5.0 °C 1034.1 hPa Calm   9.0 km/h 98% 0.0 mm
17:27 4.8 °C 5.0 °C 1033.1 hPa Calm   5.8 km/h 98% 0.0 mm
17:29 4.9 °C 5.0 °C 1033.1 hPa Calm   5.8 km/h 98% 0.0 mm
17:34 4.9 °C 5.0 °C 1033.1 hPa Calm     98% 0.0 mm
17:39 5.1 °C 5.0 °C 1033.1 hPa Calm   5.5 km/h 98% 0.0 mm
17:41 5.1 °C 5.0 °C 1034.1 hPa Calm   5.5 km/h 98% 0.0 mm
17:46 5.1 °C 5.0 °C 1034.1 hPa Calm   5.5 km/h 98% 0.0 mm
17:47 5.1 °C 5.0 °C 1034.1 hPa Calm     98% 0.0 mm
17:50 5.1 °C 5.0 °C 1034.1 hPa Calm     98% 0.0 mm
17:53 5.1 °C 5.0 °C 1034.1 hPa Calm     98% 0.0 mm
17:56 5.1 °C 5.0 °C 1034.1 hPa Calm     98% 0.0 mm
17:59 5.1 °C 5.0 °C 1034.1 hPa Calm     98% 0.0 mm
18:02 5.1 °C 5.0 °C 1034.1 hPa Calm     98% 0.0 mm
18:04 5.0 °C 5.0 °C 1034.1 hPa Calm     98% 0.0 mm
18:09 4.9 °C 5.0 °C 1034.1 hPa Calm     98% 0.0 mm
18:10 4.8 °C 5.0 °C 1034.1 hPa Calm     98% 0.0 mm
18:16 4.7 °C 5.0 °C 1034.1 hPa Calm     98% 0.0 mm
18:17 4.7 °C 5.0 °C 1034.1 hPa Calm     98% 0.0 mm
18:22 4.7 °C 5.0 °C 1034.1 hPa Calm     98% 0.0 mm
18:27 4.6 °C 5.0 °C 1033.1 hPa Calm     98% 0.0 mm
18:28 4.5 °C 5.0 °C 1033.1 hPa Calm     98% 0.0 mm
18:33 4.3 °C 4.0 °C 1033.1 hPa Calm     98% 0.0 mm
18:35 4.2 °C 4.0 °C 1033.1 hPa Calm     98% 0.0 mm
18:40 4.1 °C 4.0 °C 1033.1 hPa Calm   3.2 km/h 98% 0.0 mm
18:41 4.0 °C 4.0 °C 1033.1 hPa Calm   3.2 km/h 98% 0.0 mm
18:46 3.9 °C 4.0 °C 1033.1 hPa Calm   3.2 km/h 98% 0.0 mm
18:51 3.8 °C 4.0 °C 1033.1 hPa Calm     98% 0.0 mm
18:53 3.8 °C 4.0 °C 1033.1 hPa Calm     98% 0.0 mm
18:58 3.8 °C 4.0 °C 1034.1 hPa Calm     98% 0.0 mm
19:03 3.7 °C 4.0 °C 1034.1 hPa Calm     98% 0.0 mm
19:08 3.7 °C 4.0 °C 1034.1 hPa Calm     98% 0.0 mm
19:13 3.7 °C 4.0 °C 1034.1 hPa Calm     98% 0.0 mm
19:17 3.7 °C 4.0 °C 1034.1 hPa Calm     98% 0.0 mm
19:22 3.8 °C 4.0 °C 1034.1 hPa Calm     98% 0.0 mm
19:24 3.9 °C 4.0 °C 1034.1 hPa Calm     98% 0.0 mm
19:28 4.0 °C 4.0 °C 1034.1 hPa Calm     98% 0.0 mm
19:32 3.9 °C 4.0 °C 1034.1 hPa Calm   2.6 km/h 98% 0.0 mm
19:37 3.8 °C 4.0 °C 1034.1 hPa Calm   2.6 km/h 98% 0.0 mm
19:41 3.8 °C 4.0 °C 1034.1 hPa Calm   2.6 km/h 98% 0.0 mm
19:46 3.5 °C 4.0 °C 1034.1 hPa West 4.0 km/h 4.7 km/h 98% 0.0 mm
19:48 3.4 °C 3.0 °C 1034.1 hPa Calm   4.7 km/h 98% 0.0 mm
19:53 3.1 °C 3.0 °C 1034.1 hPa Calm   4.7 km/h 98% 0.0 mm
19:54 3.0 °C 3.0 °C 1034.1 hPa Calm   4.7 km/h 98% 0.0 mm
19:59 2.9 °C 3.0 °C 1034.1 hPa Calm     98% 0.0 mm
20:06 2.9 °C 3.0 °C 1034.1 hPa Calm     98% 0.0 mm
20:11 3.0 °C 3.0 °C 1034.1 hPa Calm   4.0 km/h 98% 0.0 mm
20:13 3.0 °C 3.0 °C 1034.1 hPa Calm   4.0 km/h 98% 0.0 mm
20:18 3.1 °C 3.0 °C 1034.1 hPa Calm     98% 0.0 mm
20:23 3.2 °C 3.0 °C 1034.1 hPa Calm     98% 0.0 mm
20:25 3.2 °C 3.0 °C 1034.1 hPa Calm     98% 0.0 mm
20:30 3.4 °C 3.0 °C 1034.1 hPa Calm     98% 0.0 mm
20:32 3.4 °C 3.0 °C 1034.1 hPa Calm     98% 0.0 mm
20:37 3.6 °C 4.0 °C 1034.1 hPa Calm     98% 0.0 mm
20:38 3.6 °C 4.0 °C 1034.1 hPa Calm     98% 0.0 mm
20:39 3.7 °C 4.0 °C 1034.1 hPa Calm     98% 0.0 mm
20:44 3.8 °C 4.0 °C 1034.1 hPa Calm     98% 0.0 mm
20:48 3.8 °C 4.0 °C 1034.1 hPa Calm     98% 0.0 mm
20:50 3.9 °C 4.0 °C 1034.1 hPa Calm     98% 0.0 mm
20:55 4.0 °C 4.0 °C 1034.1 hPa Calm     98% 0.0 mm
21:00 4.2 °C 4.0 °C 1034.1 hPa Calm   7.6 km/h 98% 0.0 mm
21:03 4.3 °C 4.0 °C 1034.1 hPa Calm   7.6 km/h 98% 0.0 mm
21:08 4.5 °C 5.0 °C 1034.1 hPa Calm   4.7 km/h 98% 0.0 mm
21:09 4.5 °C 5.0 °C 1034.1 hPa Calm   4.7 km/h 98% 0.0 mm
21:14 4.6 °C 5.0 °C 1034.1 hPa Calm   3.5 km/h 98% 0.0 mm
21:18 4.7 °C 5.0 °C 1034.1 hPa Calm     98% 0.0 mm
21:23 4.8 °C 5.0 °C 1034.1 hPa Calm     98% 0.0 mm
21:25 4.8 °C 5.0 °C 1034.1 hPa Calm     98% 0.0 mm
21:30 4.8 °C 5.0 °C 1034.1 hPa Calm     98% 0.0 mm
21:32 4.9 °C 5.0 °C 1034.1 hPa West 4.3 km/h 4.3 km/h 98% 0.0 mm
21:35 4.9 °C 5.0 °C 1034.1 hPa Calm   4.3 km/h 98% 0.0 mm
21:40 5.0 °C 5.0 °C 1034.1 hPa Calm   5.8 km/h 98% 0.0 mm
21:43 5.0 °C 5.0 °C 1034.1 hPa West 8.7 km/h 8.7 km/h 98% 0.0 mm
21:48 5.1 °C 5.0 °C 1034.1 hPa Calm   8.7 km/h 98% 0.0 mm
21:49 5.1 °C 5.0 °C 1034.1 hPa Calm   8.7 km/h 98% 0.0 mm
21:54 5.1 °C 5.0 °C 1034.1 hPa Calm   7.9 km/h 98% 0.0 mm
21:55 5.2 °C 5.0 °C 1034.1 hPa Calm   7.6 km/h 98% 0.0 mm
21:56 5.2 °C 5.0 °C 1034.1 hPa West 5.5 km/h 6.9 km/h 98% 0.0 mm
22:01 5.3 °C 6.0 °C 1034.1 hPa Calm   6.4 km/h 98% 0.0 mm
22:06 5.3 °C 6.0 °C 1034.1 hPa Calm   5.5 km/h 98% 0.0 mm
22:11 5.3 °C 6.0 °C 1034.1 hPa Calm     98% 0.0 mm
22:14 5.3 °C 6.0 °C 1034.1 hPa Calm     98% 0.0 mm
22:19 5.3 °C 6.0 °C 1034.1 hPa Calm     98% 0.0 mm
22:20 5.3 °C 6.0 °C 1034.1 hPa Calm     98% 0.0 mm
22:22 5.3 °C 6.0 °C 1034.1 hPa Calm     98% 0.0 mm
22:27 5.3 °C 6.0 °C 1034.1 hPa Calm     98% 0.0 mm
22:29 5.3 °C 6.0 °C 1034.1 hPa Calm     98% 0.0 mm
22:34 5.3 °C 6.0 °C 1034.1 hPa Calm   3.2 km/h 98% 0.0 mm
22:36 5.3 °C 6.0 °C 1034.1 hPa Calm   3.2 km/h 98% 0.0 mm
22:40 5.4 °C 6.0 °C 1034.1 hPa Calm   5.0 km/h 98% 0.0 mm
22:42 5.4 °C 6.0 °C 1034.1 hPa Calm   5.0 km/h 98% 0.0 mm
22:47 5.5 °C 6.0 °C 1034.1 hPa Calm   5.0 km/h 98% 0.0 mm
22:52 5.5 °C 6.0 °C 1034.1 hPa Calm   5.0 km/h 98% 0.0 mm
22:53 5.5 °C 6.0 °C 1034.1 hPa Calm   5.0 km/h 98% 0.0 mm
22:58 5.5 °C 6.0 °C 1034.1 hPa Calm     98% 0.0 mm
22:59 5.5 °C 6.0 °C 1034.1 hPa Calm     98% 0.0 mm
23:04 5.6 °C 6.0 °C 1034.1 hPa West 6.4 km/h 6.4 km/h 98% 0.0 mm
23:09 5.7 °C 6.0 °C 1034.1 hPa WSW 4.3 km/h 6.4 km/h 98% 0.0 mm
23:11 5.7 °C 6.0 °C 1034.1 hPa West 5.8 km/h 7.6 km/h 98% 0.0 mm
23:13 5.7 °C 6.0 °C 1034.1 hPa WSW 4.0 km/h 7.6 km/h 98% 0.0 mm
23:18 5.7 °C 6.0 °C 1034.1 hPa Calm   7.6 km/h 98% 0.0 mm
23:22 5.8 °C 6.0 °C 1034.1 hPa Calm   6.9 km/h 98% 0.0 mm
23:24 5.8 °C 6.0 °C 1034.1 hPa Calm   6.9 km/h 98% 0.0 mm
23:29 5.8 °C 6.0 °C 1033.1 hPa Calm     98% 0.0 mm
23:31 5.8 °C 6.0 °C 1033.1 hPa Calm     98% 0.0 mm
23:36 5.9 °C 6.0 °C 1033.1 hPa West 4.3 km/h 4.3 km/h 98% 0.0 mm
23:38 5.9 °C 6.0 °C 1033.1 hPa WSW 7.6 km/h 7.6 km/h 98% 0.0 mm
23:42 6.1 °C 6.0 °C 1033.1 hPa Calm   7.6 km/h 98% 0.0 mm
23:43 6.1 °C 6.0 °C 1033.1 hPa Calm   7.6 km/h 98% 0.0 mm
23:48 6.1 °C 6.0 °C 1033.1 hPa Calm   4.0 km/h 98% 0.0 mm
23:50 6.1 °C 6.0 °C 1033.1 hPa West 6.4 km/h 6.4 km/h 98% 0.0 mm
23:55 6.2 °C 6.0 °C 1034.1 hPa West 5.5 km/h 9.0 km/h 98% 0.0 mm
23:57 6.2 °C 6.0 °C 1034.1 hPa West 5.8 km/h 9.3 km/h 98% 0.0 mm
Données Historique de Météo Turbie

Mise a jour : 22/05/2018 21:52:12
Généré par Cumulus 1.9.4 (1099)